Terminal Aerodrome Forecast
Issued by NWS

Home | Current Version | Previous Version | Text Only | Print | Product List | Glossary On
Versions: 1 2 3 4 5 6 7 8 9 10 11 12 13 14 15 16 17
000
FTUS41 KPHI 200800 AAA
TAFMIV
TAF AMD
KMIV 200810Z 2008/2106 06005KT P6SM SCT025 BKN035
      TEMPO 2008/2011 3SM BR BKN025
     FM201100 08005KT P6SM OVC015
     FM201400 11007KT P6SM OVC025
     FM201600 14009KT P6SM BKN035
      TEMPO 2021/2024 -SHRA
     FM210100 VRB03KT 5SM BR BKN020
     FM210400 VRB02KT 5SM BR BKN012=

USA.gov is the U.S. government's official web portal to all federal, state and local government web resources and services.